Location: ????????
(55.6333°N, 37.7000°E)
Time: 17:31:15
(UTC+00:00)

Aureole 3 Rocket - Pass Details

Date: 19 May 2025
Orbit: 397 x 1697 km, 82.5° (Epoch: 20 June)

Event Time Altitude Azimuth Distance (km) Brightness Sun altitude
Rises 22:51:28 0° 348° (NNW) 3,520 8.0 -12.2°
Reaches altitude 10° 22:54:23 10° 354° (N) 2,355 7.1 -12.1°
Maximum altitude 22:59:18 46° 68° (ENE) 839 4.1 -11.8°
Drops below altitude 10° 23:02:56 10° 143° (SE) 1,748 5.1 -11.6°
Enters shadow 23:04:05 - 148° (SSE) 2,210 5.6 -11.6°
